Powrót do katalogu

SPACEWAY 2

AktywnyŁącznośćGEO
NORAD 28903·PAYLOAD·🇺🇸 United States

Wystrzelony Nov 16, 2005 z Guiana Space Centre

Loading…

TLE

ŚwieżeSource: Space-Track

Epoka: Sep 14, 2026, 13:30 UTC

1 28903U 05046B   26257.56262309  .00000066  00000-0  00000-0 0  9994
2 28903   5.6964  71.0100 0004239  87.4943 267.7820  0.99062168 52152

Śledź SPACEWAY 2 w czasie rzeczywistym z AllMySat

Download on the App Store